STARLINK-30239, 57291

Orbit data source: Space-Track

STARLINK-30239, 57291 is a payload satellite owned by SpaceX/Seattle (US) in LEO that was launched on Mon, 10 Jul 2023 UTC via an FALCON 9 launch vehicle from the Air Force Eastern Test Range (AFETR). Payload-class satellites include a variety of spacecraft equipped with specific instruments for various scientific and technological missions. These include communications satellites like Starlink; space stations such as the ISS; scientific satellites like the Hubble; Earth observation satellites from companies like Planet Labs, Umbra, and HawkEye 360; GPS; miniature CubeSats for education and research; and military/defense satellites.

Loading next visibility...
Identifier
57291, 2023-096B
Orbit
LEO
Country
Flag of USUS
Related business
Manufacturer
SpaceX/Seattle
Mission
Operational Commercial Communications
Bus & Motor
STARLINK V2M, Unknown motor
Mass
730 kg wet, ~700 kg dry
Launch date (UTC)
2023-07-10 (3 years ago)
Launch vehicle
FALCON 9
Launch site
Air Force Eastern Test Range (AFETR)
Object type
Payload
Rocket body
Debris
Shape & HBR
Box + 2 Pan, 17.7 m
Radar Cross Section
33.884 m², Large (>1 m²)

Expand to show TLE details & history
Last TLE update: 8 hours ago

TLE from 8 hours ago
0 STARLINK-30239
1 57291U 23096B   26236.58336806  .00583784  00000-0  11359-1 0  9997
2 57291  43.0043 353.4050 0001264 293.6396  46.5872 15.44597900  5866
Epoch: 2026-08-24T14:00Z
TLE epoch observation values (Epoch: 2026-08-24T14:00:03.000Z)
Latitude
-13.46427°
Longitude
155.73934°
Altitude
434.451 km
Speed
7.652 km/s
True Right ascension
22h 34m 27s
True Declination
-13° 22' 59"
Sunlit
Object was in full shadow at epoch
Visualization orbit readout
Latitude
Unknown
Longitude
Unknown
Altitude
Unknown
Speed
Unknown
Apparent Right ascension
Unknown
Apparent Declination
Unknown
Sunlit
N/A
Visualization observer readout
Local Sidereal Time
13:30:14
Azimuth
Unknown
Elevation
Unknown
Doppler factor
Unknown
Orbital elements
Apogee altitude
435.38 km
Perigee altitude
433.658 km
Semi-major axis
6,812.656 km
Eccentricity
0.00013
Inclination
43.0043°
RAAN
353.405°
Arg. of periapsis
293.6396°
True anomaly
46.59772°
Mean anomaly
46.5872°
Eccentric anomaly
46.59246°
Mean motion
3.85983 °/min
Orbital period
93.27 mins
BSTAR
0.011359
Loading maneuver chart data...
Computing Atmospheric mass density...

Documentation

Showing up to 5 results
|